Flag for Canada Weather past 2 weeks in Halifax, Nova Scotia, Canada

Now
39 °F

Passing clouds.


Feels Like: 32 °F
Forecast: 36 / 48 °F
Wind: 10 mph from Southwest

Location: Halifax International Airport


UV Index: 3 (Moderate)

Visibility: 15 mi


Pressure: 30.20 "Hg

Humidity: 70%

Dew point: 30 °F

Location of HalifaxLocation

Historic Weather in Halifax

°F

Halifax temperature yesterday

Maximum temperature yesterday: 48 °F (at 4:00 PM)
Minimum temperature yesterday: 30 °F (at 5:00 AM)
Average temperature yesterday: 39 °F

Past Weeks' High & Low Weather Summary

 TemperatureHumidityPressure
High64 °F (Apr 14, 4:00 PM)100% (Apr 8, 1:55 PM)30.80 "Hg (Apr 8, 1:55 PM)
Low21 °F (Apr 18, 6:00 AM)23% (Apr 10, 5:00 PM)29.32 "Hg (Apr 9, 4:00 AM)
Average41 °F75%30.10 "Hg
* Reported Apr 6 9:00 AM — Apr 21 9:00 AM, Halifax, Weather by CustomWeather, © 2014

Note: Actual official high and low records may vary slightly from our data, if they occured in-between our weather recording intervals... More about our weather records

Advertising

Historic Weather Conditions — Data for Previous 24 hours

 ConditionsComfort  
Time TempWeatherWind HumidityBarometerVisibility
9:00 AM
Apr 21
39 °FPassing clouds.10 mph70%30.20 "Hg15 mi
8:00 AM34 °FPassing clouds.10 mph87%30.22 "Hg15 mi
7:00 AM30 °FPassing clouds.8 mph93%30.22 "Hg15 mi
6:00 AM28 °FPassing clouds.7 mph93%30.24 "Hg14 mi
5:00 AM30 °FLight fog.5 mph93%30.24 "Hg15 mi
4:00 AM28 °FLight fog.3 mph100%30.27 "Hg15 mi
3:00 AM30 °FIce fog.3 mph100%30.29 "Hg1 mi
2:00 AM32 °FPassing clouds.3 mph93%30.32 "Hg15 mi
1:00 AM34 °FClear.9 mph93%30.32 "Hg15 mi
12:00 AM36 °FPassing clouds.9 mph81%30.34 "Hg15 mi
11:00 PM
Apr 20
37 °FPassing clouds.10 mph75%30.35 "Hg15 mi
10:00 PM37 °FPassing clouds.10 mph75%30.37 "Hg15 mi
9:00 PM41 °FPassing clouds.5 mph49%30.37 "Hg15 mi
8:00 PM43 °FPassing clouds.6 mph49%30.36 "Hg15 mi
7:00 PM46 °FPassing clouds.8 mph40%30.35 "Hg15 mi
6:00 PM48 °FPassing clouds.10 mph37%30.36 "Hg15 mi
5:00 PM48 °FPassing clouds.7 mph40%30.36 "Hg15 mi
4:00 PM48 °FPassing clouds.15 mph40%30.37 "Hg15 mi
3:00 PM46 °FPassing clouds.15 mph46%30.37 "Hg15 mi
2:00 PM45 °FPartly sunny.18 mph53%30.39 "Hg15 mi
1:00 PM43 °FPartly sunny.15 mph53%30.40 "Hg15 mi
12:00 PM41 °FPartly sunny.16 mph61%30.41 "Hg15 mi
11:00 AM39 °FPartly sunny.12 mph65%30.40 "Hg15 mi
10:00 AM37 °FPartly sunny.10 mph75%30.39 "Hg15 mi
Weather by CustomWeather, © 2014

See weather overview